GSAT0234 (GALILEO 34)

Last updated on Sun Sep 20 2026 00:02:47 GMT+0000 (Coordinated Universal Time)

1 67162U 25302C 26262.08092277 .00000017 00000+0 00000+0 0 9993 2 67162 54.3983 99.4534 0000329 62.8198 298.7279 1.70474430 4781
UTC large
Height (km)
Speed (km/s)
/
Latitude / Longitude
Inclination (degrees)
Orbital Period (minutes)
Azimuth
Elevation
Range (km)
Doppler Factor

Next 0 passes for location: London (51.5072 / 0.1276)

No passes found over London.
GSAT0234 (GALILEO 34)